Location: Albany
(35.0170°S, 117.8920°E)
Time: 01:57:36
(UTC+08:00)

Explorer 7 - Pass Details

Date: 23 January 2021
Orbit: 484 x 677 km, 50.3° (Epoch: 01 March)

Event Time Altitude Azimuth Distance (km) Brightness Sun altitude
Rises 14:40:53 0° 355° (N) 3,015 10.8 55.3°
Reaches altitude 10° 14:44:02 10° 15° (NNE) 2,110 9.9 54.7°
Maximum altitude 14:47:02 16° 53° (NE) 1,725 9.3 54.1°
Drops below altitude 10° 14:50:01 10° 91° (E) 2,103 9.5 53.5°
Sets 14:53:08 0° 112° (ESE) 3,000 10.2 52.9°
